| time (UTC) | temp F | wind direction | speed MPH | gust MPH | rain 1hr in | rain 24hr in | rain mn in | humidity % | barometer mb |
| 20260507043054 | 53 | 135 | 0.0 | 0.0 | 0.00 | 0.51 | 0.00 | 10 | 1003.0 |
| 20260507034547 | 52 | 180 | 1.0 | 2.0 | 0.00 | 0.51 | 0.00 | 10 | 1002.1 |
| 20260507031543 | 52 | 222 | 0.0 | 0.0 | 0.00 | 0.51 | 0.00 | 10 | 1002.0 |
| 20260507021539 | 53 | 180 | 0.0 | 0.0 | 0.00 | 0.51 | 0.00 | 10 | 1002.0 |
| 20260507014537 | 51 | 180 | 0.0 | 0.0 | 0.00 | 1.51 | 0.00 | 10 | |
| 20260507013036 | 51 | 180 | 0.0 | 0.0 | 0.00 | 0.51 | 0.00 | 10 | 1002.1 |
| 20260507011533 | 50 | 222 | 0.0 | 0.0 | 0.00 | 0.51 | 0.00 | 10 | 1002.2 |
| 20260507010030 | 50 | 180 | 0.0 | 1.0 | 0.00 | 0.51 | 0.00 | 10 | 1001.1 |
| 20260507004530 | 50 | 222 | 1.0 | 3.0 | 0.00 | 0.51 | 0.00 | 10 | 1001.1 |
| 20260507003030 | 51 | 222 | 0.0 | 0.0 | 0.00 | 0.51 | 0.00 | 10 | 1001.1 |
| 20260507001528 | 51 | 270 | 0.0 | 0.0 | 0.00 | 0.51 | 0.00 | 10 | 1001.0 |
| 20260507000029 | 52 | 222 | 0.0 | 0.0 | 0.00 | 0.51 | 0.00 | 10 | |
| 20260506234527 | 52 | 180 | 3.0 | 6.0 | 0.00 | 0.51 | 0.00 | 10 | 1002.1 |
| 20260506233025 | 52 | 222 | 3.0 | 8.0 | 0.00 | 0.51 | 0.00 | 10 | 1002.1 |
| 20260506231524 | 52 | 180 | 2.0 | 6.0 | 0.00 | 0.51 | 0.00 | 10 | 1001.1 |
| 20260506230024 | 53 | 135 | 1.0 | 3.0 | 0.00 | 0.00 | 0.00 | 1001.0 | |
| 20260506230022 | 53 | 135 | 1.0 | 3.0 | 0.00 | 0.51 | 0.00 | 10 | 1001.0 |
| 20260506224520 | 53 | 222 | 0.0 | 0.0 | 0.01 | 0.50 | 0.00 | 99 | 1000.9 |
| 20260506221518 | 54 | 270 | 1.0 | 3.0 | 0.01 | 0.50 | 0.00 | 98 | 1000.8 |
| 20260506214716 | 55 | 180 | 0.0 | 0.0 | 0.01 | 0.50 | 0.00 | 10 | 1000.8 |
| 20260506213217 | 55 | 222 | 1.0 | 1.0 | 0.01 | 0.50 | 0.00 | 10 | 1000.8 |
| 20260506211716 | 54 | 222 | 4.0 | 10.0 | 0.01 | 0.50 | 0.00 | 10 | 1001.0 |
| 20260506210216 | 55 | 0 | 3.0 | 4.0 | 0.00 | 0.50 | 0.00 | 99 | 999.8 |
| 20260506204713 | 55 | 0 | 2.0 | 3.0 | 0.09 | 0.40 | 0.00 | 99 | 999.7 |
| 20260506203211 | 55 | 315 | 2.0 | 4.0 | 0.09 | 0.40 | 0.00 | 10 | 999.8 |
| 20260506201709 | 55 | 315 | 4.0 | 6.0 | 0.08 | 0.40 | 0.00 | 10 | 999.8 |
| 20260506200210 | 55 | 270 | 6.0 | 11.0 | 0.00 | 0.40 | 0.00 | 10 | 999.8 |
| 20260506200208 | 55 | 270 | 6.0 | 11.0 | 0.00 | 0.40 | 0.00 | 10 | 999.8 |
| 20260506194708 | 56 | 270 | 4.0 | 8.0 | 0.01 | 0.01 | 0.00 | 98 | 999.7 |
| 20260506193206 | 57 | 180 | 9.0 | 16.0 | 0.00 | 0.01 | 0.00 | 92 | 999.7 |
| 20260506191705 | 59 | 90 | 2.0 | 3.0 | 0.00 | 0.01 | 0.00 | 82 | 998.4 |
| 20260506190204 | 59 | 90 | 0.0 | 0.0 | 0.00 | 0.01 | 0.00 | 80 | 998.4 |
| 20260506184703 | 59 | 90 | 3.0 | 6.0 | 0.00 | 0.01 | 0.00 | 75 | 998.4 |
| 20260506183203 | 59 | 315 | 4.0 | 6.0 | 0.00 | 0.01 | 0.00 | 75 | 997.4 |
| 20260506181701 | 60 | 315 | 3.0 | 4.0 | 0.00 | 0.01 | 0.00 | 72 | 997.3 |
| 20260506180201 | 60 | 315 | 5.0 | 9.0 | 0.00 | 0.01 | 0.00 | 70 | 997.3 |
| 20260506174659 | 62 | 270 | 0.0 | 0.0 | 0.00 | 0.01 | 0.00 | 67 | 997.2 |
| 20260506173158 | 62 | 270 | 3.0 | 4.0 | 0.00 | 0.01 | 0.00 | 70 | 996.1 |
| 20260506171659 | 64 | 315 | 7.0 | 12.0 | 0.00 | 0.01 | 0.00 | 69 | 997.1 |
| 20260506170155 | 65 | 270 | 3.0 | 6.0 | 0.00 | 0.01 | 0.00 | 73 | 996.0 |
| 20260506164655 | 65 | 315 | 5.0 | 8.0 | 0.00 | 0.01 | 0.00 | 70 | 996.0 |
| 20260506163154 | 65 | 315 | 6.0 | 10.0 | 0.00 | 0.01 | 0.00 | 69 | 996.0 |
| 20260506161652 | 67 | 315 | 3.0 | 4.0 | 0.00 | 0.01 | 0.00 | 64 | 995.8 |
| 20260506160149 | 67 | 0 | 1.0 | 3.0 | 0.00 | 0.01 | 0.00 | 64 | 995.8 |
| 20260506153148 | 69 | 180 | 2.0 | 4.0 | 0.00 | 0.01 | 0.00 | 65 | 996.7 |
| 20260506151647 | 69 | 270 | 3.0 | 7.0 | 0.00 | 0.01 | 0.00 | 66 | 996.7 |
| 20260506150144 | 68 | 90 | 4.0 | 7.0 | 0.00 | 0.01 | 0.00 | 66 | 996.8 |
| 20260506144641 | 70 | 90 | 3.0 | 5.0 | 0.00 | 0.01 | 0.00 | 58 | 996.6 |
| 20260506143143 | 71 | 315 | 2.0 | 6.0 | 0.00 | 0.01 | 0.00 | 59 | 996.6 |
| 20260506143139 | 71 | 315 | 2.0 | 6.0 | 0.00 | 0.01 | 0.00 | 59 | 996.6 |
| 20260506141638 | 70 | 222 | 5.0 | 8.0 | 0.00 | 0.01 | 0.00 | 54 | 996.6 |
| 20260506141636 | 70 | 222 | 5.0 | 8.0 | 0.00 | 0.01 | 0.00 | 54 | 996.6 |
| 20260506140133 | 0 | 222 | 6.0 | 0.0 | 0.00 | 0.01 | 0.00 | 55 | 0.9 |
| 20260506134635 | 76 | 45 | 3.0 | 6.0 | 0.00 | 0.01 | 0.00 | 51 | 996.3 |
| 20260506134631 | 76 | 45 | 3.0 | 6.0 | 0.00 | 0.01 | 0.00 | 51 | 996.3 |
| 20260506131627 | 74 | 90 | 3.0 | 4.0 | 0.00 | 0.01 | 0.00 | 49 | 996.4 |
| 20260506130127 | 72 | 90 | 1.0 | 4.0 | 0.00 | 0.00 | 0.00 | ||
| 20260506124625 | 70 | 180 | 6.0 | 11.0 | 0.00 | 0.01 | 0.00 | 58 | 997.8 |
| 20260506123125 | 70 | 222 | 3.0 | 5.0 | 0.00 | 0.01 | 0.00 | 997.7 | |
| 20260506123123 | 70 | 222 | 3.0 | 5.0 | 0.00 | 0.01 | 0.00 | 53 | 997.7 |
| 20260506121622 | 70 | 180 | 1.0 | 2.0 | 0.00 | 0.01 | 0.00 | 57 | 997.7 |
| 20260506120121 | 69 | 222 | 2.0 | 5.0 | 0.00 | 0.01 | 0.00 | 59 | 997.9 |
| 20260506114620 | 72 | 222 | 2.0 | 4.0 | 0.00 | 0.01 | 0.00 | 54 | 997.6 |
| 20260506113120 | 74 | 222 | 2.0 | 4.0 | 0.00 | 0.01 | 0.00 | 57 | 997.5 |
| 20260506111618 | 70 | 270 | 3.0 | 6.0 | 0.00 | 0.01 | 0.00 | 63 | 997.8 |
| 20260506110118 | 67 | 222 | 3.0 | 8.0 | 0.00 | 0.01 | 0.00 | 65 | 998.0 |
| 20260506104616 | 67 | 222 | 2.0 | 4.0 | 0.00 | 0.01 | 0.00 | 64 | 999.0 |
| 20260506103115 | 66 | 90 | 2.0 | 4.0 | 0.00 | 0.01 | 0.00 | 68 | 999.0 |
| 20260506101614 | 64 | 180 | 5.0 | 8.0 | 0.00 | 0.01 | 0.00 | 70 | 999.2 |
| 20260506100112 | 66 | 180 | 2.0 | 4.0 | 0.00 | 0.01 | 0.00 | 70 | 999.0 |
| 20260506093108 | 62 | 222 | 5.0 | 13.0 | 0.00 | 0.01 | 0.00 | 74 | 999.3 |
| 20260506091607 | 63 | 180 | 3.0 | 5.0 | 0.00 | 0.01 | 0.00 | 77 | 999.3 |
| 20260506090107 | 62 | 180 | 3.0 | 4.0 | 0.00 | 0.01 | 0.00 | 79 | |
| 20260506084609 | 62 | 180 | 3.0 | 8.0 | 0.00 | 0.01 | 0.00 | ||
| 20260506084607 | 62 | 180 | 3.0 | 8.0 | 0.00 | 0.01 | 0.00 | 73 | 999.3 |
| 20260506083106 | 61 | 180 | 5.0 | 11.0 | 0.00 | 0.01 | 0.00 | 81 | 999.4 |
| 20260506081604 | 60 | 222 | 3.0 | 8.0 | 0.00 | 0.00 | 0.00 | 82 | 999.5 |
| 20260506073101 | 58 | 90 | 5.0 | 11.0 | 0.00 | 0.01 | 0.00 | 94 | 999.6 |
| 20260506071600 | 58 | 222 | 3.0 | 8.0 | 0.00 | 0.01 | 0.00 | 95 | 999.7 |